DateTimeUTC,F1_A11,F1_S11,BsB_S11,BsG_S11,BsR_S11,BbsB_S11,BbsG_S11,BbsR_S11,BaB_A11,BaG_A11,BaR_A11,Tu_S11,T_S11,Uu_S11,U_S11,P_S11,T1_A11
2021-06-22T21:00:00Z,00040200,20010000,,,,,,,0000.39,0000.32,0000.25,18.7,25.4,04.5,03.0,0674.3,31.1
2021-06-22T21:01:00Z,00040200,20000000,,,,,,,-000.28,-000.23,-000.08,18.7,25.4,04.5,03.0,0674.3,31.2
2021-06-22T21:02:00Z,00040200,20000000,,,,,,,0000.24,-000.06,0000.05,18.6,25.4,04.5,03.0,0674.3,31.2
2021-06-22T21:03:00Z,00040200,60000000,,,,,,,0000.27,0000.20,0000.16,18.6,25.4,04.5,03.0,0674.3,31.1
2021-06-22T21:04:00Z,00040200,40000000,0001.36,0001.25,0000.15,0000.50,0000.17,0000.02,0000.47,0000.87,0000.50,18.7,25.2,04.6,03.1,0675.3,31.1
2021-06-22T21:05:00Z,00040200,00000000,0001.09,0000.84,0000.31,0000.38,0000.30,-000.04,0000.76,0000.51,0000.71,18.8,25.2,04.6,03.1,0675.3,31.1
2021-06-22T21:06:00Z,00040200,00000000,0000.61,0000.92,0000.57,0000.52,0000.28,0000.20,0000.25,0000.08,-000.19,18.8,25.2,04.7,03.2,0675.3,31.1
2021-06-22T21:07:00Z,00040200,00000000,0001.16,0000.82,0000.92,-000.15,0000.37,0000.34,0000.70,0000.67,0000.89,18.7,25.1,04.7,03.2,0675.4,31.1
2021-06-22T21:08:00Z,00040200,00000000,0001.68,0000.78,0000.40,0000.52,0000.39,0000.15,0000.60,0000.66,0000.21,18.7,25.1,04.7,03.2,0675.4,31.1
2021-06-22T21:09:00Z,00040200,00000000,0001.42,0000.81,0000.52,0000.09,0000.14,0000.07,0000.51,0000.43,0000.45,18.7,25.1,04.7,03.2,0675.4,31.1
2021-06-22T21:10:00Z,00040200,00000000,0001.34,0000.71,0000.45,-000.10,0000.24,0000.37,0000.58,0000.34,0000.49,18.8,25.1,04.7,03.2,0675.3,31.1
2021-06-22T21:11:00Z,00040200,00000000,0001.19,0001.05,0000.34,0000.47,0000.35,0000.17,0000.42,0000.62,0000.14,18.8,25.1,04.7,03.2,0675.4,31.1
2021-06-22T21:12:00Z,00040200,00000000,0001.60,0001.36,0000.47,0000.32,0000.43,0000.21,0000.40,0000.48,0000.52,18.7,25.1,04.6,03.1,0675.3,31.1
2021-06-22T21:13:00Z,00040200,00000000,0001.35,0000.94,0000.27,0000.38,0000.24,0000.08,0000.58,0000.53,0000.53,18.7,25.1,04.8,03.2,0675.4,31.1
2021-06-22T21:14:00Z,00040200,00000000,0001.15,0000.80,0000.79,0000.91,0000.16,0000.18,0000.55,0000.36,0000.24,18.7,25.1,04.6,03.1,0675.4,31.1
2021-06-22T21:15:00Z,00040200,00000000,0001.36,0000.77,0000.57,0000.87,0000.32,0000.16,0000.45,0000.20,0000.20,18.7,25.1,04.6,03.1,0675.4,31.1
2021-06-22T21:16:00Z,00040200,00000000,0000.58,0001.00,0000.71,0000.38,0000.28,0000.09,0000.42,0000.95,0000.58,18.7,25.1,04.7,03.2,0675.4,31.1
2021-06-22T21:17:00Z,00040200,00000000,0000.95,0000.56,0000.56,0000.68,0000.35,-000.12,0000.21,0000.26,0000.43,18.7,25.1,04.7,03.2,0675.4,31.1
2021-06-22T21:18:00Z,00040200,00000000,0001.28,0000.85,0000.63,0000.70,0000.21,0000.19,0000.52,0000.69,-000.27,18.7,25.1,04.5,03.1,0675.4,31.1
2021-06-22T21:19:00Z,00040200,00000000,0001.26,0000.86,0000.52,-000.01,0000.58,0000.38,0000.47,0000.08,0000.39,18.7,25.1,04.6,03.1,0675.5,31.1
2021-06-22T21:20:00Z,00040200,00000000,0001.23,0000.94,0000.60,0000.30,0000.16,0000.18,0000.62,0000.74,0000.67,18.7,25.1,04.6,03.1,0675.4,31.1
2021-06-22T21:21:00Z,00040200,00000000,0001.55,0000.93,0000.54,0000.48,0000.19,0000.21,0000.56,-000.03,0000.25,18.7,25.1,04.7,03.2,0675.5,31.1
2021-06-22T21:22:00Z,00040200,00000000,0001.09,0000.85,0000.44,0000.37,0000.16,0000.16,0000.51,0000.42,0000.75,18.7,25.0,04.6,03.1,0675.4,31.1
2021-06-22T21:23:00Z,00040200,00000000,0001.06,0001.23,0000.46,0000.55,0000.41,0000.26,0000.67,0000.47,0000.04,18.7,25.0,04.7,03.2,0675.5,31.1
2021-06-22T21:24:00Z,00040200,00000000,0001.87,0000.95,0000.49,0000.74,0000.24,-000.11,0000.54,0001.20,0000.52,18.7,25.0,04.6,03.1,0675.5,31.1
2021-06-22T21:25:00Z,00040200,00000000,0001.61,0000.71,0000.45,0000.25,0000.46,0000.06,0000.45,0000.14,0000.44,18.7,25.0,04.6,03.1,0675.5,31.1
2021-06-22T21:26:00Z,00040200,00000000,0001.15,0000.75,0000.72,0000.59,0000.15,-000.00,0000.38,0000.16,-000.03,18.7,25.0,04.6,03.1,0675.5,31.1
2021-06-22T21:27:00Z,00040200,00000000,0000.69,0000.81,0000.84,0000.41,0000.36,0000.18,0000.15,0000.44,0000.17,18.6,25.0,04.6,03.1,0675.5,31.1
2021-06-22T21:28:00Z,00040200,00000000,0001.17,0000.85,0000.45,0000.60,0000.25,-000.06,0001.14,0000.48,0000.91,18.7,25.0,04.6,03.2,0675.5,31.1
2021-06-22T21:29:00Z,00040200,00000000,0001.29,0000.60,0000.55,0000.43,0000.33,-000.14,0000.33,0001.02,0000.88,18.8,25.0,04.6,03.1,0675.5,31.1
2021-06-22T21:30:00Z,00040200,00000000,0001.15,0001.04,0000.26,0001.07,0000.37,-000.06,0000.70,0000.19,-000.16,18.9,25.1,04.5,03.1,0675.5,31.1
2021-06-22T21:31:00Z,00040200,00000000,0000.64,0000.73,0000.76,0000.24,0000.18,0000.39,0000.11,0000.13,0000.52,19.0,25.2,04.5,03.1,0675.5,31.2
2021-06-22T21:32:00Z,00040200,00000000,0001.93,0001.43,0000.65,0000.50,0000.35,0000.32,0000.63,0000.60,0000.36,19.0,25.2,04.5,03.1,0675.5,31.2
2021-06-22T21:33:00Z,00040200,00000000,0001.73,0001.33,0000.65,0000.38,-000.17,0000.23,0000.54,0000.96,0000.48,19.1,25.2,04.5,03.1,0675.5,31.2
2021-06-22T21:34:00Z,00040200,00000000,0001.35,0000.62,0000.46,0000.36,0000.27,0000.08,0000.58,0000.54,0000.54,19.1,25.3,04.4,03.0,0675.5,31.1
2021-06-22T21:35:00Z,00040200,00000000,0001.14,0000.85,0000.67,0000.35,0000.26,0000.16,0000.45,0000.25,0000.49,19.1,25.2,04.4,03.0,0675.6,31.2
2021-06-22T21:36:00Z,00040200,00000000,0001.67,0000.88,0000.54,0000.49,0000.19,0000.31,0000.74,0000.59,0000.41,19.0,25.2,04.4,03.0,0675.6,31.2
2021-06-22T21:37:00Z,00040200,00000000,0000.69,0000.69,0000.84,0000.42,0000.51,0000.23,0000.76,0000.64,0000.10,19.0,25.2,04.3,02.9,0675.5,31.1
2021-06-22T21:38:00Z,00040200,00000000,0000.99,0000.87,0000.49,0000.52,0000.16,-000.00,0000.08,0000.18,0000.58,19.0,25.2,04.4,03.0,0675.6,31.1
2021-06-22T21:39:00Z,00040200,00000000,0001.26,0001.01,0000.28,-000.21,0000.09,0000.01,0000.40,0000.13,0000.21,19.0,25.2,04.3,03.0,0675.5,31.1
2021-06-22T21:40:00Z,00040200,00000000,0001.31,0000.97,0000.52,0000.46,0000.13,0000.11,0000.81,0000.51,0000.26,19.0,25.2,04.4,03.0,0675.5,31.1
2021-06-22T21:41:00Z,00040200,00000000,0001.51,0001.00,0000.62,0000.28,0000.22,0000.09,-000.02,0000.43,0000.19,18.9,25.2,04.3,02.9,0675.5,31.1
2021-06-22T21:42:00Z,00040200,00000000,0001.29,0000.74,0000.71,0000.57,0000.47,0000.17,0000.59,0000.76,0000.64,19.0,25.2,04.3,02.9,0675.5,31.1
2021-06-22T21:43:00Z,00040200,00000000,0001.14,0000.82,0000.62,0000.32,0000.17,0000.46,0000.27,0000.08,-000.05,18.9,25.2,04.2,02.9,0675.5,31.1
2021-06-22T21:44:00Z,00040200,00000000,0000.98,0001.13,0000.22,0000.61,0000.30,0000.11,-000.00,-000.05,0000.27,18.9,25.2,04.2,02.9,0675.6,31.1
2021-06-22T21:45:00Z,00040200,00000000,0001.43,0000.83,0000.55,-000.32,0000.09,0000.12,0000.65,0000.83,0000.62,18.9,25.2,04.1,02.8,0675.6,31.1
2021-06-22T21:46:00Z,00040200,00000000,0000.86,0001.15,0000.51,0000.21,0000.21,-000.08,0000.43,0000.36,-000.01,18.9,25.2,04.2,02.9,0675.5,31.1
2021-06-22T21:47:00Z,00040200,00000000,0000.76,0000.98,0000.66,0000.59,0000.39,0000.11,0000.82,0000.84,0000.80,18.9,25.2,04.2,02.9,0675.5,31.1
2021-06-22T21:48:00Z,00040200,00000000,0001.35,0000.77,0000.67,0000.19,0000.12,0000.23,0000.71,0000.24,0000.24,18.9,25.2,04.2,02.9,0675.5,31.1
2021-06-22T21:49:00Z,00040200,00000000,0001.20,0000.96,0000.56,0000.27,0000.28,0000.12,0000.37,0000.40,0000.43,18.9,25.2,04.3,02.9,0675.6,31.1
2021-06-22T21:50:00Z,00040200,00000000,0001.37,0000.56,0000.42,0000.52,0000.10,0000.12,0000.36,0000.19,0000.09,18.8,25.2,04.3,02.9,0675.6,31.1
2021-06-22T21:51:00Z,00040200,00000000,0001.29,0001.10,0000.66,0000.59,0000.35,0000.10,0000.94,0000.66,0000.60,18.8,25.2,04.2,02.9,0675.6,31.1
2021-06-22T21:52:00Z,00040200,00000000,0001.45,0001.01,0000.55,0001.01,0000.14,0000.26,0000.14,0000.65,0000.29,18.8,25.1,04.3,02.9,0675.6,31.1
2021-06-22T21:53:00Z,00040200,00000000,0001.36,0000.84,0000.40,0000.67,0000.34,0000.22,0000.05,0000.29,0000.19,18.8,25.1,04.3,02.9,0675.6,31.1
2021-06-22T21:54:00Z,00040200,00000000,0001.75,0001.21,0000.40,0000.49,0000.39,0000.18,0000.85,0000.76,0000.27,18.8,25.1,04.1,02.8,0675.6,31.1
2021-06-22T21:55:00Z,00040200,00000000,0001.32,0000.86,0000.49,0000.72,0000.31,0000.21,0000.21,0000.02,0000.59,18.8,25.1,04.1,02.8,0675.6,31.1
2021-06-22T21:56:00Z,00040200,00000000,0001.20,0000.77,0000.27,0000.28,0000.17,0000.10,0000.28,0000.15,0000.26,18.7,25.1,04.1,02.8,0675.6,31.1
2021-06-22T21:57:00Z,00040200,40000000,,,,,,,0000.86,0000.68,0000.19,18.8,25.2,03.8,02.6,0675.6,31.1
2021-06-22T21:58:00Z,00040200,60000000,,,,,,,-000.24,-000.22,0000.15,18.6,25.3,04.2,02.8,0674.7,31.1
2021-06-22T21:59:00Z,00040200,20000000,,,,,,,-000.10,0000.03,-000.20,18.6,25.4,04.0,02.7,0674.7,31.1
